Terug naar catalogus

COSMOS 1275 DEB

ActiefPO
NORAD 42095·DEBRIS·🇷🇺 Russia

Gelanceerd Jun 4, 1981 vanaf Plesetsk Cosmodrome

Loading…

Volgende Passages (komende 24 uur)

TLE

VersSource: Space-Track

Epoch: Sep 13, 2026, 08:01 UTC

1 42095U 81053PF  26256.33434353  .00000954  00000-0  86681-3 0  9996
2 42095  82.7511 111.7195 0129795 324.2572  34.9947 13.78929563641740

Volg COSMOS 1275 DEB in realtime met AllMySat

Download on the App Store